CST,Max TemperatureF,Mean TemperatureF,Min TemperatureF,Max Dew PointF,MeanDew PointF,Min DewpointF,Max Humidity, Mean Humidity, Min Humidity, Max Sea Level PressureIn, Mean Sea Level PressureIn, Min Sea Level PressureIn, Max VisibilityMiles, Mean VisibilityMiles, Min VisibilityMiles, Max Wind SpeedMPH, Mean Wind SpeedMPH, Max Gust SpeedMPH,PrecipitationIn, CloudCover, Events, WindDirDegrees
2014-1-1,8,0,-8,-4,-8,-14,75,62,44,30.49,30.43,30.32,10,10,10,9,4,,0.00,7,,10
2014-1-2,12,0,-13,0,-5,-18,85,71,45,30.49,30.38,30.30,10,9,5,14,6,,0.00,5,Snow,340
2014-1-3,18,-2,-21,11,-4,-27,85,72,62,30.46,30.10,29.67,10,10,10,20,7,29,0.00,3,,161
2014-1-4,32,21,8,28,15,1,87,71,63,30.19,29.83,29.59,10,10,10,16,11,25,0.00,5,,267
2014-1-5,8,-2,-12,-1,-13,-21,68,60,46,30.31,30.25,30.19,10,10,10,18,12,24,0.00,2,,315
2014-1-6,-12,-18,-23,-22,-26,-30,72,63,54,30.28,30.20,30.12,10,10,7,23,16,26,0.00,2,Snow,284
2014-1-7,3,-6,-16,-11,-17,-24,84,65,47,30.33,30.25,30.20,10,10,10,14,8,,0.00,1,,260
2014-1-8,6,-5,-16,-7,-15,-22,84,72,52,30.58,30.47,30.33,10,10,10,7,2,,0.00,0,,288
2014-1-9,19,-2,-23,18,-6,-29,93,71,49,30.56,30.34,30.04,10,10,10,9,3,,0.00,4,,129
2014-1-10,32,26,19,32,29,18,100,100,93,30.07,29.65,29.44,10,4,1,10,5,,0.00,8,Rain-Snow,120
2014-1-11,32,30,28,32,30,28,100,100,93,29.65,29.46,29.41,10,8,4,14,5,,0.00,8,Rain-Snow,283
2014-1-12,42,34,28,28,28,27,93,72,57,29.62,29.53,29.47,10,10,10,16,12,23,0.00,6,,175
2014-1-13,35,30,26,32,24,18,87,73,56,29.68,29.60,29.52,10,10,10,21,13,26,0.00,5,,272
2014-1-14,30,22,14,28,19,7,100,89,73,29.99,29.72,29.42,5,2,0,22,10,29,0.03,8,Snow,317
2014-1-15,17,12,6,12,5,0,85,76,62,30.13,29.95,29.54,10,8,5,16,11,22,0.00,7,Snow,264
2014-1-16,32,21,9,32,17,0,100,77,59,29.77,29.50,29.36,10,9,2,25,11,34,0.03,8,Snow,252
2014-1-17,17,8,-5,10,5,-8,92,78,63,30.01,29.83,29.71,10,8,2,17,13,23,0.03,7,Snow,287
2014-1-18,17,4,-9,13,4,-14,93,83,73,29.96,29.85,29.72,10,9,2,10,5,,0.01,5,Snow,98
2014-1-19,35,25,15,28,22,12,87,76,60,29.77,29.59,29.48,10,10,10,16,11,24,0.00,5,,265
2014-1-20,32,17,1,27,15,-9,100,80,56,30.35,29.91,29.65,10,9,2,14,7,23,0.00,7,Snow,8
2014-1-21,3,-5,-13,-8,-13,-18,78,66,47,30.45,30.34,30.14,10,10,10,10,6,,0.00,3,,295
2014-1-22,8,2,-5,1,-5,-15,79,70,52,30.33,30.03,29.89,10,8,2,21,6,28,0.01,7,Snow,263
2014-1-23,1,-5,-11,-11,-15,-18,77,65,51,30.66,30.57,30.36,10,10,10,20,14,28,0.00,0,,274
2014-1-24,32,10,-13,32,18,-19,100,80,54,30.39,29.56,29.37,10,8,2,20,13,29,0.00,7,Snow,249
2014-1-25,29,15,1,21,-3,-11,74,51,39,29.87,29.66,29.39,10,10,10,26,19,34,0.00,1,Snow,289
2014-1-26,18,9,0,14,0,-8,93,77,52,29.93,29.55,29.37,10,5,0,29,11,41,0.01,6,Fog-Snow,211
2014-1-27,1,-6,-13,-6,-17,-24,72,63,50,30.45,30.17,29.86,10,9,4,25,18,33,0.00,1,Snow,270
2014-1-28,1,-8,-16,-12,-17,-23,74,63,47,30.44,30.32,30.18,10,10,10,14,10,20,0.00,0,,246
2014-1-29,27,9,-8,11,-3,-15,71,56,36,30.17,30.01,29.73,10,10,10,16,10,26,0.00,3,,208
2014-1-30,30,20,8,27,16,-1,100,74,51,30.00,29.66,29.46,10,7,0,22,10,29,0.13,5,Snow,216
2014-1-31,6,-2,-11,-4,-10,-16,80,72,53,30.23,30.13,30.01,10,10,10,9,6,,0.00,2,,259